period_start,C,m1,H,J0,J1,J2,J3,J4,J5,JA,JB,JC,JD,JJ,JK,JN,#
2017-11-09 00:00:14,0.08,0.44,0.00,14.10,17.32,20.48,14.47,46.75,1017.59,2069.44,3455.69,3010.26,3440.15,600.14,615.16,4.78,0000 0000 0000 0000 000000
2017-11-09 00:05:15,0.12,0.44,0.00,14.10,17.32,20.49,14.46,46.74,1017.60,2069.48,3453.51,3008.64,3438.06,600.18,615.28,4.83,0000 0000 0000 0000 000000
2017-11-09 00:10:16,0.08,0.45,0.00,14.11,17.32,20.47,14.36,46.71,1017.62,2069.31,3451.28,3007.05,3436.10,600.07,615.17,4.88,0000 0000 0000 0000 000000
2017-11-09 00:15:17,0.12,0.46,0.00,14.11,17.33,20.48,14.39,46.82,1017.68,2069.16,3448.67,3005.01,3433.59,599.99,614.99,4.93,0000 0000 0000 0000 000000
2017-11-09 00:20:18,0.10,0.46,0.00,14.10,17.34,20.49,14.44,46.93,1017.83,2069.08,3446.43,3003.36,3431.52,600.13,615.37,4.98,0000 0000 0000 0000 000000
2017-11-09 00:25:19,0.09,0.47,0.00,14.11,17.34,20.47,14.32,46.63,1018.07,2069.14,3444.47,3001.90,3429.86,599.79,615.09,5.03,0000 0000 0000 0000 000000
2017-11-09 00:30:21,0.09,0.47,0.00,14.12,17.34,20.49,14.34,46.93,1018.08,2069.08,3442.41,3000.47,3428.05,599.88,615.16,5.08,0000 0000 0000 0000 000000
2017-11-09 00:35:22,0.12,0.48,0.00,14.12,17.34,20.48,14.41,46.91,1018.07,2069.08,3440.25,2998.73,3425.96,599.96,615.37,5.13,0000 0000 0000 0000 000000
2017-11-09 00:40:24,0.13,0.48,0.00,14.11,17.34,20.54,14.29,46.95,1018.07,2069.06,3437.76,2996.61,3423.55,599.81,615.22,5.18,0000 0000 0000 0000 000000
2017-11-09 00:45:25,0.09,0.49,0.00,14.12,17.34,20.53,14.41,47.03,1018.06,2069.05,3435.61,2995.08,3421.55,599.93,615.27,5.23,0000 0000 0000 0000 000000
2017-11-09 00:50:26,0.10,0.49,0.00,14.13,17.35,20.54,14.48,47.06,1018.00,2069.05,3433.58,2993.65,3419.77,600.15,615.50,5.28,0000 0000 0000 0000 000000
2017-11-09 00:55:27,0.09,0.50,0.00,14.13,17.36,20.53,14.36,47.22,1017.76,2069.03,3431.46,2992.22,3417.93,599.93,615.18,5.33,0000 0000 0000 0000 000000
2017-11-09 01:00:29,0.09,0.50,0.00,14.12,17.37,20.52,14.42,47.20,1017.71,2069.02,3429.32,2990.79,3416.12,600.02,615.07,5.38,0000 0000 0000 0000 000000
2017-11-09 01:05:30,0.10,0.51,0.00,14.12,17.37,20.55,14.40,47.20,1017.76,2069.02,3427.29,2989.34,3414.30,599.81,614.96,5.43,0000 0000 0000 0000 000000
2017-11-09 01:10:32,0.10,0.51,0.00,14.13,17.37,20.54,14.42,47.32,1017.81,2069.00,3425.22,2987.80,3412.54,600.13,615.30,5.48,0000 0000 0000 0000 000000
2017-11-09 01:15:33,0.09,0.52,0.00,14.13,17.37,20.49,14.36,47.08,1018.02,2069.00,3423.16,2986.44,3410.75,599.89,615.06,5.53,0000 0000 0000 0000 000000
2017-11-09 01:20:34,0.08,0.52,0.00,14.12,17.37,20.53,14.38,47.20,1018.07,2069.00,3421.11,2985.05,3409.01,599.90,615.19,5.58,0000 0000 0000 0000 000000
2017-11-09 01:25:35,0.10,0.53,0.00,14.12,17.37,20.55,14.45,47.33,1018.05,2069.00,3419.06,2983.65,3407.26,600.23,615.46,5.63,0000 0000 0000 0000 000000
2017-11-09 01:30:36,0.10,0.53,0.00,14.09,17.37,20.53,14.32,47.34,1018.00,2069.00,3416.86,2982.09,3405.30,599.88,615.24,5.68,0000 0000 0000 0000 000000
2017-11-09 01:35:37,0.10,0.54,0.00,14.09,17.37,20.54,14.41,47.07,1018.07,2069.00,3414.67,2980.55,3403.43,599.55,615.23,5.73,0000 0000 0000 0000 000000
2017-11-09 01:40:39,0.09,0.54,0.00,14.10,17.37,20.51,14.39,47.22,1018.08,2069.00,3412.67,2979.13,3401.66,599.85,615.27,5.78,0000 0000 0000 0000 000000
2017-11-09 01:45:40,0.10,0.55,0.00,14.08,17.37,20.54,14.38,46.94,1018.09,2069.00,3410.56,2977.66,3399.82,599.77,615.24,5.83,0000 0000 0000 0000 000000
2017-11-09 01:50:41,0.08,0.55,0.00,14.08,17.37,20.53,14.38,46.94,1018.13,2069.00,3408.53,2976.35,3398.15,600.11,615.57,5.88,0000 0000 0000 0000 000000
2017-11-09 01:55:42,0.10,0.56,0.00,14.09,17.37,20.54,14.42,46.98,1018.15,2069.00,3406.50,2974.88,3396.43,600.08,615.59,5.93,0000 0000 0000 0000 000000
2017-11-09 02:00:44,0.09,0.56,0.00,14.10,17.37,20.53,14.45,46.95,1018.13,2069.00,3404.48,2973.49,3394.70,600.15,615.56,5.98,0000 0000 0000 0000 000000
2017-11-09 02:05:45,0.09,0.57,0.00,14.10,17.37,20.53,14.42,46.78,1018.18,2069.00,3402.44,2972.06,3393.01,599.75,615.18,6.03,0000 0000 0000 0000 000000
2017-11-09 02:10:47,0.09,0.57,0.00,14.11,17.37,20.47,14.37,46.91,1018.21,2068.99,3400.46,2970.65,3391.37,599.74,615.17,6.08,0000 0000 0000 0000 000000
2017-11-09 02:15:48,0.09,0.58,0.00,14.12,17.37,20.49,14.42,46.88,1018.35,2068.99,3398.48,2969.33,3389.77,600.03,615.41,6.13,0000 0000 0000 0000 000000
2017-11-09 02:20:49,0.11,0.58,0.00,14.11,17.37,20.49,14.32,46.71,1018.47,2068.99,3396.34,2967.69,3387.89,599.67,615.36,6.18,0000 0000 0000 0000 000000
2017-11-09 02:25:50,0.09,0.59,0.00,14.11,17.37,20.50,14.41,46.77,1018.53,2068.99,3394.27,2966.22,3386.08,599.71,615.34,6.23,0000 0000 0000 0000 000000
2017-11-09 02:30:52,0.09,0.59,0.00,14.14,17.37,20.52,14.51,46.74,1018.50,2068.99,3392.32,2964.79,3384.45,600.16,615.76,6.28,0000 0000 0000 0000 000000
2017-11-09 02:35:53,0.08,0.60,0.00,14.16,17.37,20.51,14.38,46.75,1018.56,2068.99,3390.60,2963.55,3382.82,600.18,615.70,6.33,0000 0000 0000 0000 000000
2017-11-09 02:40:54,0.09,0.60,0.00,14.18,17.37,20.50,14.40,46.83,1018.56,2068.99,3388.69,2962.22,3381.13,599.99,615.49,6.38,0000 0000 0000 0000 000000
2017-11-09 02:45:56,0.10,0.61,0.00,14.19,17.38,20.55,14.34,46.77,1018.57,2068.99,3386.68,2960.75,3379.42,599.90,615.35,6.43,0000 0000 0000 0000 000000
2017-11-09 02:50:57,0.09,0.61,0.00,14.19,17.39,20.53,14.39,46.84,1018.57,2068.99,3384.69,2959.40,3377.67,600.14,615.65,6.48,0000 0000 0000 0000 000000
2017-11-09 02:55:58,0.10,0.62,0.00,14.19,17.39,20.57,14.42,46.71,1018.60,2068.98,3382.65,2957.88,3375.94,599.85,615.40,6.53,0000 0000 0000 0000 000000
2017-11-09 03:01:00,0.10,0.62,0.00,14.20,17.39,20.56,14.38,47.02,1018.61,2068.98,3380.57,2956.50,3374.19,600.01,615.49,6.58,0000 0000 0000 0000 000000
2017-11-09 03:06:01,0.09,0.63,0.00,14.20,17.39,20.53,14.44,46.88,1018.63,2068.96,3378.52,2955.02,3372.37,600.30,615.80,6.63,0000 0000 0000 0000 000000
2017-11-09 03:11:02,0.10,0.63,0.00,14.22,17.40,20.55,14.38,46.79,1018.62,2068.98,3376.45,2953.59,3370.67,599.96,615.43,6.68,0000 0000 0000 0000 000000
2017-11-09 03:16:03,0.10,0.64,0.00,14.22,17.41,20.56,14.36,46.77,1018.63,2068.97,3374.34,2952.00,3368.78,599.97,615.42,6.73,0000 0000 0000 0000 000000
2017-11-09 03:21:04,0.10,0.64,0.00,14.23,17.42,20.57,14.30,46.80,1018.77,2068.97,3372.23,2950.51,3366.92,599.74,615.31,6.78,0000 0000 0000 0000 000000
2017-11-09 03:26:05,0.10,0.65,0.00,14.25,17.42,20.55,14.42,46.88,1018.88,2068.96,3370.12,2949.02,3365.13,600.20,615.75,6.83,0000 0000 0000 0000 000000
2017-11-09 03:31:06,0.10,0.65,0.00,14.25,17.42,20.57,14.42,46.91,1019.04,2068.96,3368.14,2947.66,3363.48,599.90,615.50,6.88,0000 0000 0000 0000 000000
2017-11-09 03:36:08,0.09,0.66,0.00,14.27,17.42,20.59,14.35,46.79,1019.05,2068.92,3366.04,2946.19,3361.65,599.60,615.12,6.93,0000 0000 0000 0000 000000
2017-11-09 03:41:09,0.10,0.66,0.00,14.28,17.43,20.63,14.36,46.80,1019.06,2068.85,3363.94,2944.69,3359.84,599.78,615.32,6.98,0000 0000 0000 0000 000000
2017-11-09 03:46:10,0.07,0.67,0.00,14.27,17.44,20.59,14.36,46.77,1019.05,2068.64,3361.79,2943.26,3357.96,599.88,615.49,7.04,0000 0000 0000 0000 000000
2017-11-09 03:51:11,0.11,0.67,0.00,14.28,17.44,20.64,14.39,46.81,1019.05,2068.59,3359.59,2941.71,3356.12,600.05,615.57,7.09,0000 0000 0000 0000 000000
2017-11-09 03:56:13,0.08,0.68,0.00,14.29,17.44,20.60,14.32,46.85,1019.04,2068.45,3357.51,2940.28,3354.35,599.48,615.04,7.14,0000 0000 0000 0000 000000
2017-11-09 04:01:14,0.09,0.68,0.00,14.30,17.45,20.63,14.32,46.91,1019.03,2068.40,3355.40,2938.74,3352.50,599.98,615.57,7.19,0000 0000 0000 0000 000000
2017-11-09 04:06:16,0.09,0.69,0.00,14.30,17.46,20.64,14.39,46.78,1019.05,2068.18,3353.17,2937.14,3350.56,600.03,615.59,7.24,0000 0000 0000 0000 000000
2017-11-09 04:11:17,0.10,0.69,0.00,14.31,17.47,20.60,14.41,46.86,1019.05,2068.07,3351.01,2935.60,3348.66,600.11,615.61,7.29,0000 0000 0000 0000 000000
2017-11-09 04:16:18,0.09,0.70,0.00,14.30,17.47,20.62,14.40,46.89,1019.06,2068.06,3348.85,2934.06,3346.83,600.12,615.72,7.34,0000 0000 0000 0000 000000
2017-11-09 04:21:19,0.10,0.70,0.00,14.30,17.47,20.64,14.37,46.91,1019.06,2068.05,3346.84,2932.66,3345.14,600.08,615.76,7.39,0000 0000 0000 0000 000000
2017-11-09 04:26:21,0.09,0.71,0.00,14.29,17.48,20.64,14.38,46.93,1019.07,2068.02,3344.95,2931.42,3343.52,600.14,615.74,7.44,0000 0000 0000 0000 000000
2017-11-09 04:31:22,0.09,0.71,0.00,14.30,17.49,20.63,14.40,47.04,1019.07,2068.04,3343.02,2929.99,3341.86,599.60,615.29,7.49,0000 0000 0000 0000 000000
2017-11-09 04:36:23,0.09,0.72,0.00,14.31,17.49,20.66,14.45,46.90,1019.14,2068.01,3341.14,2928.67,3340.25,600.51,616.00,7.54,0000 0000 0000 0000 000000
2017-11-09 04:41:24,0.09,0.72,0.00,14.32,17.49,20.67,14.41,46.86,1019.39,2068.01,3339.18,2927.40,3338.57,600.45,616.08,7.59,0000 0000 0000 0000 000000
2017-11-09 04:46:26,0.08,0.73,0.00,14.32,17.49,20.65,14.40,46.77,1019.47,2068.01,3337.27,2926.02,3336.97,600.38,616.09,7.64,0000 0000 0000 0000 000000
2017-11-09 04:51:26,0.09,0.73,0.00,14.32,17.50,20.68,14.39,46.68,1019.54,2068.01,3335.44,2924.70,3335.39,600.30,616.17,7.69,0000 0000 0000 0000 000000
2017-11-09 04:56:28,0.08,0.73,0.00,14.33,17.52,20.69,14.43,46.81,1019.54,2068.02,3333.68,2923.53,3333.86,600.05,615.74,7.74,0000 0000 0000 0000 000000
2017-11-09 05:01:29,0.08,0.74,0.00,14.34,17.52,20.67,14.38,46.79,1019.55,2068.01,3331.94,2922.33,3332.40,600.00,615.83,7.79,0000 0000 0000 0000 000000
2017-11-09 05:06:31,0.10,0.74,0.00,14.35,17.52,20.70,14.43,46.88,1019.54,2068.01,3329.96,2920.87,3330.71,600.12,615.86,7.84,0000 0000 0000 0000 000000
2017-11-09 05:11:32,0.08,0.75,0.00,14.36,17.52,20.70,14.45,46.83,1019.55,2068.00,3328.30,2919.69,3329.18,599.97,615.73,7.89,0000 0000 0000 0000 000000
2017-11-09 05:16:33,0.08,0.75,0.00,14.37,17.53,20.71,14.36,46.88,1019.55,2068.00,3326.68,2918.56,3327.76,599.63,615.26,7.94,0000 0000 0000 0000 000000
2017-11-09 05:21:34,0.08,0.76,0.00,14.36,17.54,20.71,14.34,46.88,1019.58,2068.00,3324.90,2917.29,3326.37,599.78,615.51,7.99,0000 0000 0000 0000 000000
2017-11-09 05:26:35,0.08,0.76,0.00,14.37,17.54,20.69,14.39,46.90,1019.55,2068.00,3323.21,2916.12,3324.83,600.08,615.79,8.04,0000 0000 0000 0000 000000
2017-11-09 05:31:37,0.08,0.77,0.00,14.37,17.54,20.71,14.36,46.83,1019.59,2068.00,3321.44,2914.90,3323.40,599.67,615.45,8.09,0000 0000 0000 0000 000000
2017-11-09 05:36:38,0.09,0.77,0.00,14.37,17.55,20.72,14.41,46.91,1019.64,2068.00,3319.81,2913.65,3321.88,599.79,615.67,8.14,0000 0000 0000 0000 000000
2017-11-09 05:41:39,0.08,0.77,0.00,14.37,17.57,20.74,14.35,46.81,1019.58,2068.00,3318.01,2912.29,3320.29,600.03,615.69,8.19,0000 0000 0000 0000 000000
2017-11-09 05:46:40,0.09,0.78,0.00,14.38,17.57,20.72,14.32,46.81,1019.71,2068.00,3316.19,2910.92,3318.65,600.08,615.84,8.24,0000 0000 0000 0000 000000
2017-11-09 05:51:41,0.08,0.78,0.00,14.39,17.57,20.74,14.38,46.84,1019.83,2067.99,3314.57,2909.76,3317.16,599.93,615.63,8.29,0000 0000 0000 0000 000000
2017-11-09 05:56:43,0.09,0.79,0.00,14.38,17.57,20.72,14.38,47.02,1019.99,2067.99,3312.83,2908.62,3315.70,599.99,615.90,8.34,0000 0000 0000 0000 000000
2017-11-09 06:01:44,0.08,0.79,0.00,14.39,17.59,20.75,14.44,47.00,1020.03,2067.98,3311.16,2907.27,3314.08,599.74,615.58,8.39,0000 0000 0000 0000 000000
2017-11-09 06:06:45,0.08,0.80,0.00,14.39,17.59,20.74,14.34,46.98,1020.03,2067.99,3309.44,2906.07,3312.60,600.12,616.06,8.44,0000 0000 0000 0000 000000
2017-11-09 06:11:47,0.08,0.80,0.00,14.39,17.59,20.73,14.44,47.02,1020.04,2067.98,3307.75,2904.86,3311.22,600.05,615.82,8.49,0000 0000 0000 0000 000000
2017-11-09 06:16:48,0.07,0.80,0.00,14.39,17.59,20.75,14.38,46.92,1020.04,2067.97,3306.19,2903.82,3309.85,599.87,615.80,8.54,0000 0000 0000 0000 000000
2017-11-09 06:21:49,0.08,0.81,0.00,14.40,17.59,20.80,14.38,46.87,1020.05,2067.98,3304.62,2902.72,3308.59,600.10,616.03,8.59,0000 0000 0000 0000 000000
2017-11-09 06:26:51,0.07,0.81,0.00,14.41,17.60,20.74,14.42,46.97,1020.05,2067.97,3303.00,2901.64,3307.20,600.25,616.16,8.64,0000 0000 0000 0000 000000
2017-11-09 06:31:52,0.08,0.82,0.00,14.43,17.61,20.76,14.41,46.79,1020.04,2067.97,3301.35,2900.48,3305.82,600.22,616.15,8.69,0000 0000 0000 0000 000000
2017-11-09 06:36:53,0.08,0.82,0.00,14.45,17.62,20.79,14.40,46.93,1020.04,2067.97,3299.71,2899.36,3304.51,600.06,615.77,8.74,0000 0000 0000 0000 000000
2017-11-09 06:41:55,0.07,0.82,0.00,14.45,17.62,20.79,14.37,46.93,1020.04,2067.98,3298.17,2898.30,3303.17,600.26,616.09,8.79,0000 0000 0000 0000 000000
2017-11-09 06:46:56,0.08,0.83,0.00,14.44,17.62,20.79,14.38,47.03,1020.05,2067.91,3296.50,2897.06,3301.68,599.54,615.37,8.84,0000 0000 0000 0000 000000
2017-11-09 06:51:57,0.07,0.83,0.00,14.45,17.62,20.77,14.36,46.90,1020.05,2067.71,3294.64,2895.74,3300.15,599.76,615.47,8.89,0000 0000 0000 0000 000000
2017-11-09 06:56:58,0.09,0.84,0.00,14.47,17.63,20.80,14.42,46.92,1020.13,2067.57,3292.79,2894.51,3298.56,600.42,616.18,8.94,0000 0000 0000 0000 000000
2017-11-09 07:01:59,0.05,0.84,0.00,14.48,17.64,20.85,14.47,46.88,1020.20,2067.25,3290.88,2893.03,3296.82,600.55,616.40,8.99,0000 0000 0000 0000 000000
2017-11-09 07:07:01,0.09,0.85,0.00,14.50,17.64,20.81,14.39,46.87,1020.29,2067.27,3289.13,2891.82,3295.44,599.90,615.83,9.04,0000 0000 0000 0000 000000
2017-11-09 07:12:02,0.08,0.85,0.00,14.50,17.64,20.82,14.42,46.83,1020.41,2067.26,3287.44,2890.59,3293.84,600.24,616.13,9.09,0000 0000 0000 0000 000000
2017-11-09 07:17:04,0.07,0.85,0.00,14.49,17.66,20.83,14.35,46.91,1020.48,2067.12,3285.67,2889.36,3292.43,599.75,615.79,9.14,0000 0000 0000 0000 000000
2017-11-09 07:22:05,0.07,0.86,0.00,14.50,17.67,20.82,14.39,46.84,1020.52,2067.04,3283.98,2888.17,3290.90,599.94,615.89,9.19,0000 0000 0000 0000 000000
2017-11-09 07:27:06,0.08,0.86,0.00,14.50,17.67,20.85,14.39,47.05,1020.48,2067.04,3282.24,2886.99,3289.49,599.80,615.84,9.24,0000 0000 0000 0000 000000
2017-11-09 07:32:08,0.11,0.87,0.00,14.50,17.67,20.88,14.37,47.14,1020.35,2067.06,3280.38,2885.59,3287.87,599.87,615.73,9.29,0000 0000 0000 0000 000000
2017-11-09 07:37:09,0.10,0.87,0.00,14.50,17.67,20.83,14.41,47.13,1020.39,2067.03,3278.36,2883.99,3285.97,599.78,615.58,9.34,0000 0000 0000 0000 000000
2017-11-09 07:42:11,0.10,0.88,0.00,14.49,17.68,20.89,14.41,47.17,1020.29,2067.02,3276.37,2882.52,3284.24,600.06,615.95,9.39,0000 0000 0000 0000 000000
2017-11-09 07:47:12,0.10,0.88,0.00,14.48,17.69,20.85,14.40,47.03,1020.35,2067.02,3274.38,2881.00,3282.47,599.66,615.59,9.45,0000 0000 0000 0000 000000
2017-11-09 07:52:13,0.10,0.89,0.00,14.47,17.69,20.88,14.46,47.17,1020.38,2067.01,3272.53,2879.65,3280.81,600.15,616.16,9.50,0000 0000 0000 0000 000000
2017-11-09 07:57:15,0.08,0.89,0.00,14.47,17.69,20.90,14.41,47.09,1020.43,2067.03,3270.72,2878.56,3279.36,600.18,616.24,9.55,0000 0000 0000 0000 000000
2017-11-09 08:02:16,0.09,0.90,0.00,14.47,17.69,20.90,14.49,47.10,1020.36,2067.01,3268.83,2877.33,3277.74,600.35,616.34,9.60,0000 0000 0000 0000 000000
2017-11-09 08:07:17,0.07,0.90,0.00,14.46,17.69,20.87,14.45,47.20,1020.38,2067.01,3267.18,2876.14,3276.35,600.09,616.15,9.65,0000 0000 0000 0000 000000
2017-11-09 08:12:19,0.09,0.90,0.00,14.44,17.69,20.89,14.39,47.08,1020.33,2067.01,3265.55,2874.93,3274.90,599.76,615.92,9.70,0000 0000 0000 0000 000000
2017-11-09 08:17:20,0.08,0.91,0.00,14.46,17.69,20.88,14.47,47.08,1020.37,2067.01,3263.83,2873.74,3273.45,600.25,616.26,9.75,0000 0000 0000 0000 000000
2017-11-09 08:22:22,0.09,0.91,0.00,14.44,17.69,20.88,14.43,47.12,1020.29,2067.00,3262.25,2872.48,3271.89,600.19,616.08,9.80,0000 0000 0000 0000 000000
2017-11-09 08:27:23,0.08,0.92,0.00,14.44,17.69,20.89,14.42,47.04,1020.21,2067.01,3260.53,2871.20,3270.43,600.18,616.04,9.85,0000 0000 0000 0000 000000
2017-11-09 08:32:24,0.09,0.92,0.00,14.43,17.69,20.92,14.44,47.10,1020.17,2067.02,3258.84,2869.97,3268.88,600.18,616.17,9.90,0000 0000 0000 0000 000000
2017-11-09 08:37:25,0.07,0.93,0.00,14.41,17.69,20.90,14.41,47.06,1020.12,2067.01,3257.30,2868.81,3267.56,600.01,615.96,9.95,0000 0000 0000 0000 000000
2017-11-09 08:42:26,0.08,0.93,0.00,14.40,17.69,20.90,14.39,47.18,1020.09,2067.01,3255.59,2867.67,3266.18,599.81,615.75,10.00,0000 0000 0000 0000 000000
2017-11-09 08:47:27,0.09,0.94,0.00,14.39,17.69,20.87,14.45,47.22,1020.06,2067.01,3253.90,2866.47,3264.66,600.18,616.17,10.05,0000 0000 0000 0000 000000
2017-11-09 08:52:29,0.07,0.94,0.00,14.37,17.69,20.88,14.41,47.33,1020.05,2067.01,3252.18,2865.13,3263.10,600.07,616.06,10.10,0000 0000 0000 0000 000000
2017-11-09 08:57:30,0.13,0.95,0.00,14.35,17.69,20.92,14.37,47.25,1020.04,2067.03,3250.12,2863.45,3261.24,599.92,615.95,10.15,0000 0000 0000 0000 000000
2017-11-09 09:02:32,0.08,0.95,0.00,14.35,17.69,20.88,14.41,47.31,1020.04,2067.02,3248.42,2862.07,3259.62,599.84,615.90,10.20,0000 0000 0000 0000 000000
2017-11-09 09:07:33,0.09,0.96,0.00,14.32,17.69,20.90,14.40,47.25,1020.04,2067.02,3246.84,2860.83,3258.21,600.09,616.15,10.25,0000 0000 0000 0000 000000
2017-11-09 09:12:34,0.09,0.96,0.00,14.31,17.68,20.90,14.49,47.42,1020.03,2067.01,3245.17,2859.52,3256.63,600.18,616.32,10.30,0000 0000 0000 0000 000000
2017-11-09 09:17:35,0.08,0.96,0.00,14.28,17.67,20.90,14.42,47.36,1020.03,2067.02,3243.44,2858.31,3255.08,599.74,615.90,10.35,0000 0000 0000 0000 000000
2017-11-09 09:22:37,0.09,0.97,0.00,14.25,17.67,20.95,14.43,47.40,1020.02,2067.02,3241.70,2856.94,3253.50,599.86,616.13,10.40,0000 0000 0000 0000 000000
2017-11-09 09:27:38,0.09,0.97,0.00,14.23,17.67,20.86,14.39,47.37,1020.04,2067.04,3240.04,2855.72,3252.00,600.22,616.45,10.45,0000 0000 0000 0000 000000
2017-11-09 09:32:40,0.08,0.98,0.00,14.21,17.66,20.93,14.44,47.48,1020.04,2067.05,3238.46,2854.63,3250.62,600.14,616.49,10.50,0000 0000 0000 0000 000000
2017-11-09 09:37:41,0.08,0.98,0.00,14.19,17.64,20.93,14.52,47.38,1020.06,2067.02,3236.72,2853.29,3249.06,600.28,616.64,10.55,0000 0000 0000 0000 000000
2017-11-09 09:42:43,0.09,0.99,0.00,14.18,17.64,20.98,14.52,47.46,1020.06,2067.07,3235.18,2852.03,3247.64,600.19,616.64,10.60,0000 0000 0000 0000 000000
2017-11-09 09:47:44,0.10,0.99,0.00,14.16,17.64,20.95,14.43,47.52,1020.08,2067.07,3233.36,2850.65,3245.90,599.81,616.32,10.65,0000 0000 0000 0000 000000
2017-11-09 09:52:45,0.10,1.00,0.00,14.16,17.62,21.00,14.45,47.59,1020.05,2067.15,3231.56,2849.35,3244.32,599.85,616.37,10.70,0000 0000 0000 0000 000000
2017-11-09 09:57:46,0.11,1.00,0.00,14.15,17.62,20.95,14.44,47.53,1020.07,2067.25,3229.57,2847.74,3242.45,600.03,616.41,10.75,0000 0000 0000 0000 000000
2017-11-09 10:02:48,0.10,1.01,0.00,14.12,17.60,20.92,14.54,47.56,1020.09,2067.25,3227.70,2846.47,3240.75,600.39,616.97,10.80,0000 0000 0000 0000 000000
2017-11-09 10:07:49,0.09,1.01,0.00,14.08,17.59,20.93,14.49,47.35,1020.21,2067.27,3225.85,2845.08,3239.08,600.34,617.06,10.85,0000 0000 0000 0000 000000
2017-11-09 10:12:50,0.11,1.02,0.00,14.05,17.58,20.93,14.49,47.38,1020.25,2067.50,3224.19,2843.83,3237.65,600.58,617.33,10.90,0000 0000 0000 0000 000000
2017-11-09 10:17:51,0.09,1.02,0.00,14.04,17.57,20.92,14.42,47.48,1020.25,2067.53,3222.47,2842.58,3236.17,599.70,616.52,10.95,0000 0000 0000 0000 000000
2017-11-09 10:22:52,0.10,1.03,0.00,14.03,17.55,20.91,14.41,47.55,1020.31,2067.62,3220.73,2841.28,3234.58,599.97,616.81,11.00,0000 0000 0000 0000 000000
2017-11-09 10:27:54,0.08,1.03,0.00,14.02,17.54,20.91,14.54,47.42,1020.30,2067.69,3219.09,2840.03,3233.10,600.00,617.00,11.05,0000 0000 0000 0000 000000
2017-11-09 10:32:55,0.10,1.04,0.00,14.00,17.52,20.87,14.48,47.37,1020.49,2067.89,3217.56,2838.92,3231.76,600.28,617.34,11.10,0000 0000 0000 0000 000000
2017-11-09 10:37:56,0.08,1.04,0.00,13.98,17.51,20.86,14.49,47.16,1020.47,2067.94,3215.96,2837.83,3230.50,600.28,617.32,11.15,0000 0000 0000 0000 000000
2017-11-09 10:42:58,0.09,1.05,0.00,13.98,17.49,20.88,14.51,47.24,1020.45,2067.96,3214.37,2836.59,3229.01,600.13,617.32,11.20,0000 0000 0000 0000 000000
2017-11-09 10:47:59,0.08,1.05,0.00,13.97,17.48,20.83,14.45,47.25,1020.46,2067.98,3212.79,2835.56,3227.69,600.13,617.24,11.25,0000 0000 0000 0000 000000
2017-11-09 10:53:01,0.08,1.06,0.00,13.96,17.47,20.82,14.45,47.39,1020.39,2067.98,3211.14,2834.36,3226.21,600.14,617.26,11.30,0000 0000 0000 0000 000000
2017-11-09 10:58:02,0.08,1.06,0.00,13.95,17.45,20.79,14.50,47.27,1020.47,2067.99,3209.55,2833.08,3224.76,600.36,617.49,11.35,0000 0000 0000 0000 000000
2017-11-09 11:03:03,0.08,1.07,0.00,13.94,17.44,20.75,14.46,47.42,1020.44,2067.99,3207.89,2831.96,3223.42,599.86,617.07,11.40,0000 0000 0000 0000 000000
2017-11-09 11:08:04,0.10,1.07,0.00,13.93,17.42,20.80,14.52,47.48,1020.50,2067.99,3206.15,2830.70,3221.87,600.16,617.40,11.45,0000 0000 0000 0000 000000
2017-11-09 11:13:06,0.08,1.08,0.00,13.92,17.42,20.72,14.50,47.51,1020.47,2067.99,3204.47,2829.49,3220.39,599.73,616.97,11.50,0000 0000 0000 0000 000000
2017-11-09 11:18:07,0.09,1.08,0.00,13.89,17.39,20.76,14.40,47.52,1020.47,2068.00,3202.65,2828.14,3218.75,599.74,616.96,11.55,0000 0000 0000 0000 000000
2017-11-09 11:23:08,0.09,1.08,0.00,13.88,17.39,20.72,14.43,47.28,1020.52,2068.01,3200.87,2826.83,3217.29,599.63,617.02,11.60,0000 0000 0000 0000 000000
2017-11-09 11:28:10,0.10,1.09,0.00,13.87,17.37,20.69,14.46,47.38,1020.52,2068.01,3199.08,2825.52,3215.65,600.31,617.58,11.65,0000 0000 0000 0000 000000
2017-11-09 11:33:11,0.08,1.09,0.00,13.87,17.36,20.72,14.38,47.26,1020.53,2068.01,3197.41,2824.30,3214.20,599.81,616.95,11.70,0000 0000 0000 0000 000000
2017-11-09 11:38:13,0.08,1.10,0.00,13.87,17.34,20.73,14.47,47.39,1020.52,2068.03,3195.79,2823.18,3212.80,600.00,617.33,11.76,0000 0000 0000 0000 000000
2017-11-09 11:43:14,0.07,1.10,0.00,13.87,17.33,20.69,14.40,47.37,1020.57,2068.07,3194.27,2822.07,3211.56,599.75,617.14,11.81,0000 0000 0000 0000 000000
2017-11-09 11:48:15,0.09,1.11,0.00,13.88,17.32,20.58,14.48,47.34,1020.53,2068.07,3192.63,2820.86,3210.19,600.16,617.46,11.86,0000 0000 0000 0000 000000
2017-11-09 11:53:16,0.10,1.11,0.00,13.86,17.31,20.58,14.45,47.35,1020.55,2068.21,3191.06,2819.77,3208.81,599.66,617.04,11.91,0000 0000 0000 0000 000000
2017-11-09 11:58:17,0.10,1.12,0.00,13.86,17.29,20.55,14.51,47.45,1020.54,2068.50,3189.50,2818.69,3207.61,600.21,617.69,11.96,0000 0000 0000 0000 000000
2017-11-09 12:03:19,0.08,1.12,0.00,13.86,17.29,20.52,14.45,47.54,1020.52,2068.39,3187.75,2817.55,3206.06,599.95,617.35,12.01,0000 0000 0000 0000 000000
2017-11-09 12:08:20,0.10,1.13,0.00,13.84,17.27,20.51,14.48,47.53,1020.52,2068.57,3186.06,2816.22,3204.59,599.79,617.19,12.06,0000 0000 0000 0000 000000
2017-11-09 12:13:22,0.09,1.13,0.00,13.83,17.27,20.53,14.45,47.44,1020.53,2068.86,3184.53,2815.29,3203.39,600.10,617.56,12.11,0000 0000 0000 0000 000000
2017-11-09 12:18:22,0.07,1.14,0.00,13.80,17.26,20.52,14.47,47.32,1020.58,2068.91,3183.10,2814.24,3202.12,600.10,617.60,12.16,0000 0000 0000 0000 000000
2017-11-09 12:23:23,0.08,1.14,0.00,13.80,17.24,20.53,14.47,47.37,1020.68,2068.89,3181.58,2813.19,3200.83,599.87,617.43,12.21,0000 0000 0000 0000 000000
2017-11-09 12:28:25,0.07,1.14,0.00,13.79,17.24,20.49,14.43,47.42,1020.82,2068.94,3180.07,2812.08,3199.46,599.47,617.27,12.26,0000 0000 0000 0000 000000
2017-11-09 12:33:26,0.07,1.15,0.00,13.79,17.22,20.49,14.43,47.41,1020.87,2068.96,3178.61,2811.06,3198.34,599.55,617.39,12.31,0000 0000 0000 0000 000000
2017-11-09 12:38:27,0.07,1.15,0.00,13.79,17.22,20.51,14.47,47.35,1020.87,2068.97,3177.14,2810.07,3197.17,600.27,617.97,12.36,0000 0000 0000 0000 000000
2017-11-09 12:43:28,0.08,1.16,0.00,13.79,17.21,20.50,14.46,47.38,1020.90,2068.98,3175.63,2809.01,3195.88,599.86,617.65,12.41,0000 0000 0000 0000 000000
2017-11-09 12:48:30,0.07,1.16,0.00,13.77,17.19,20.47,14.48,47.33,1020.79,2068.97,3174.21,2807.99,3194.66,600.24,617.98,12.46,0000 0000 0000 0000 000000
2017-11-09 12:53:31,0.08,1.16,0.00,13.77,17.19,20.45,14.42,47.48,1020.61,2068.98,3172.74,2806.99,3193.50,599.80,617.43,12.51,0000 0000 0000 0000 000000
2017-11-09 12:58:32,0.07,1.17,0.00,13.77,17.18,20.44,14.49,47.52,1020.60,2068.99,3171.27,2805.90,3192.30,600.01,617.72,12.56,0000 0000 0000 0000 000000